Starlink 5779

operational
NORAD ID: 56028 Int'l Des: 2023-042 Owner: SPXS Country: US Constellation: starlink
LEOCIRCULAR

Über Starlink 5779

Beschreibung wird geladen...

Live-Position

3D-Globus wird geladen...

Nächste Überflüge

Höhenverlauf

Altitude vs Time

uPlot chart will show altitude changes over time

Zweizeiliger Elementsatz

1 56028U 23042AU 26063.05085824 .00000179 00000-0 28335-4 0 9993
2 56028 43.0039 73.6046 0001422 269.4520 90.6160 15.02536929162211
Epoch: 4. März 2026 • Age: 21 hours

Aktueller Status

Höhe 560.0 km
Geschwindigkeit 7.59 km/s
Subsatellitenpunkt 28.16°N, 6.97°W
Startdatum 24. März 2023
Alter 2.9 years
Typ internet

Technische Details

Klassifizierung Payload
Masse 305.00 kg
Trockenmasse 290.00 kg
Gesamtmasse 305.00 kg
Länge 0.20 m
Durchmesser 2.80 m
Spannweite 9.00 m
Form Box + pan
Hersteller SPXS
Bus-Typ Starlink
Phasenstatus In Orbit
Besitzer/Staat SPXS/US

Große Konstellationen

Loading constellations...